GFSMA_925_spd_156.txt.gz
Wind_Speed
7 6 7 7 8 9 9 9 10 11 11 11 11 12 13 13 14 17 18 16 14 21 25 26 16 20 23 22 22 26 31 32 35 35 35 35 34 34 33 34 33 33 31
7 7 7 8 8 9 10 11 12 12 12 13 14 14 14 14 14 15 16 19 20 18 21 24 23 24 24 26 25 26 29 32 36 38 37 37 37 37 36 36 36 36 35
8 7 7 7 8 9 9 9 11 11 13 13 14 14 15 15 15 16 17 18 17 17 17 22 22 21 22 24 25 28 29 32 36 39 40 39 38 38 39 37 36 36 37
9 8 8 8 9 9 10 10 11 12 12 14 16 16 17 16 16 16 15 17 15 15 11 14 16 15 15 19 21 25 29 29 33 39 41 39 38 39 40 40 38 37 37
10 8 8 9 9 8 9 11 12 12 13 13 15 17 15 15 16 15 13 13 10 7 7 7 5 11 13 13 14 20 23 26 30 35 37 33 30 38 40 41 40 39 39
9 9 10 11 11 11 12 13 14 13 12 14 18 16 13 11 9 8 7 6 9 10 8 9 6 8 11 14 10 5 6 11 21 26 32 35 43 43 40 39 39 39 40
10 10 8 8 9 10 12 13 13 13 13 18 13 10 8 1 3 4 4 6 9 10 12 12 13 12 12 15 17 21 19 5 5 15 22 32 35 36 35 35 37 37 39
10 9 9 9 10 9 12 15 16 15 11 15 13 9 3 4 7 3 4 6 9 9 11 11 12 13 13 14 13 16 20 16 17 6 7 24 27 30 36 33 32 34 33
9 10 10 9 9 9 11 12 14 15 13 13 12 9 4 3 13 1 2 4 9 14 12 12 12 11 10 10 12 15 17 16 16 18 15 7 27 31 40 29 22 23 26
9 9 9 10 11 10 11 11 12 11 12 12 9 11 6 4 4 5 7 9 13 18 13 13 14 10 10 9 10 14 15 16 15 14 16 18 12 7 18 26 28 28 23
7 8 8 8 10 10 10 10 10 11 10 10 10 10 8 6 4 6 8 13 14 13 16 11 12 11 11 9 12 15 21 17 16 15 16 15 15 14 9 24 27 33 33
5 7 8 8 9 8 9 9 9 10 11 9 8 9 9 6 9 7 8 14 11 12 10 10 13 14 15 16 16 20 24 23 22 20 17 16 17 15 9 11 22 25 35
5 6 7 8 9 9 8 8 8 8 9 9 10 9 8 8 7 8 13 11 8 12 7 6 13 13 20 19 19 23 23 21 23 25 22 18 16 18 16 15 15 18 25
4 5 7 6 7 7 7 7 6 7 7 7 9 9 8 9 8 7 8 12 7 7 10 7 14 17 20 20 20 23 21 21 22 22 18 15 17 17 18 18 19 19 20
4 5 5 6 5 6 7 5 5 7 6 7 8 9 8 8 8 7 5 9 9 6 9 11 18 20 22 21 21 23 19 19 19 20 13 11 12 14 16 19 20 22 24
7 4 4 5 5 7 6 4 5 6 7 8 8 9 9 9 7 7 8 7 8 8 6 16 17 20 21 22 24 22 18 16 16 19 16 11 11 13 12 13 17 22 26
7 4 4 6 6 6 5 5 5 7 7 7 9 10 10 8 8 8 8 8 8 8 11 18 17 18 21 24 25 21 17 14 13 14 18 14 13 12 13 15 15 17 21
7 6 6 6 4 4 4 5 7 7 8 8 9 9 10 9 9 9 9 9 9 11 13 17 18 18 18 21 23 20 18 14 14 11 16 18 20 20 21 19 17 12 11
8 8 8 5 4 4 4 6 6 7 8 8 8 9 11 10 10 11 9 10 11 12 12 15 16 16 17 20 21 18 16 13 14 16 18 17 20 23 23 25 24 23 21
9 8 8 6 5 4 5 5 5 6 7 8 8 9 11 11 10 11 10 11 12 13 12 13 13 16 17 20 19 20 17 13 13 12 15 18 18 24 24 26 28 27 25
9 9 8 6 6 5 4 4 5 6 6 7 9 9 10 11 9 10 10 10 12 12 11 13 13 15 18 22 21 21 17 18 7 17 11 14 14 18 26 29 27 27 28
9 10 8 7 6 6 7 6 5 5 6 8 9 9 9 11 9 9 8 7 10 12 11 13 14 15 18 21 21 20 17 16 9 17 14 11 13 15 18 26 28 27 28
9 11 10 9 8 6 5 5 6 5 6 8 9 10 9 10 10 6 6 6 7 11 11 11 13 15 16 20 20 18 16 12 11 19 13 10 14 13 16 19 26 30 29
10 11 9 8 7 6 4 3 5 5 6 7 8 10 8 10 11 7 5 5 7 9 11 11 11 11 13 18 17 14 15 7 2 15 20 8 16 11 9 17 22 24 28
10 10 8 7 7 7 3 2 3 3 4 5 6 11 9 9 11 8 6 5 7 9 8 10 10 11 12 17 21 16 19 13 5 9 24 10 17 14 6 13 19 22 23
11 9 8 7 8 7 5 3 4 3 3 3 4 6 12 10 11 11 7 7 8 10 9 10 9 11 13 16 20 20 18 16 14 7 21 13 18 16 6 13 16 26 20

GFSMA_925_spd_162.txt.gz
Wind_Speed
8 7 8 7 8 8 7 9 11 11 12 12 11 12 12 13 12 11 12 16 20 19 13 11 7 8 12 16 17 17 18 18 21 23 28 28 29 28 26 27 28 30 31
12 7 7 6 5 7 10 11 12 13 13 14 13 13 13 12 12 11 12 13 14 15 13 10 9 9 8 11 15 18 19 21 22 21 24 27 30 29 29 28 28 32 34
11 8 8 6 8 9 9 11 12 12 14 15 15 16 14 13 11 11 12 12 5 1 2 4 5 5 7 10 9 14 16 18 20 22 23 25 28 32 32 29 31 36 37
11 10 7 8 12 9 10 11 11 13 14 16 16 17 19 16 12 10 10 7 13 11 8 8 7 6 4 3 6 6 4 5 10 12 17 22 25 31 34 32 33 36 40
12 8 8 10 9 8 8 10 11 12 13 15 19 19 17 13 11 8 8 12 11 10 10 12 12 8 9 7 7 7 10 3 1 7 13 16 20 28 32 35 34 31 40
12 8 9 11 8 8 10 13 12 12 11 16 17 16 16 8 7 8 8 10 11 9 11 10 10 12 11 12 12 15 17 19 16 9 15 18 21 22 31 33 40 38 51
10 9 8 9 10 10 11 12 14 14 14 21 14 18 14 7 7 7 12 8 9 9 10 9 9 10 9 12 14 17 20 20 22 22 13 14 17 15 20 29 33 42 46
9 9 10 10 12 9 10 13 15 14 11 18 13 10 4 4 12 8 6 10 13 10 12 11 12 13 14 7 11 16 20 23 23 20 21 17 14 13 9 12 22 36 42
10 11 10 10 9 8 10 10 11 13 12 13 15 8 4 3 11 11 15 16 18 13 14 12 12 14 17 16 13 19 25 28 23 22 22 21 18 17 16 12 10 16 34
10 10 10 9 10 6 8 9 10 11 9 11 8 11 7 6 3 4 15 18 18 13 9 8 14 16 18 18 17 23 27 26 23 23 22 23 21 19 18 17 16 9 17
10 9 8 8 8 8 9 10 9 10 9 8 10 9 9 9 10 3 4 13 19 14 8 10 11 14 14 16 19 24 25 23 23 24 25 24 19 18 18 18 17 15 12
9 9 8 8 8 7 8 8 7 8 9 8 8 8 8 5 8 6 3 10 12 13 16 11 8 12 14 16 17 28 23 20 25 22 24 22 20 17 16 18 18 17 15
9 10 7 7 6 7 7 8 8 8 8 8 9 8 7 6 6 8 7 8 5 15 4 13 10 13 14 16 19 24 18 23 21 22 20 21 19 19 19 18 18 18 17
11 9 8 7 7 7 7 8 7 6 6 7 7 7 7 5 5 6 8 10 4 5 10 15 14 18 16 16 19 19 16 19 20 20 19 21 20 19 20 21 19 17 17
11 11 9 8 7 7 8 6 5 6 7 7 7 7 7 8 6 7 6 7 7 3 4 11 11 18 16 14 20 16 16 17 21 17 19 22 22 22 21 23 23 21 17
12 12 10 8 8 7 8 6 6 6 7 6 6 7 8 7 7 5 6 6 8 11 3 15 16 16 13 11 16 15 13 14 16 17 20 22 25 26 27 25 26 25 23
13 13 12 9 8 8 7 6 6 6 7 7 8 9 9 10 9 9 6 8 8 10 8 13 14 14 12 15 15 13 12 14 14 17 19 20 23 26 27 27 27 27 25
11 11 11 10 8 9 7 6 7 6 8 8 8 8 9 8 9 10 7 9 10 10 12 13 13 11 15 17 14 14 11 9 9 12 14 20 24 24 27 28 28 29 29
11 11 10 10 8 8 7 7 7 8 9 8 8 9 10 9 8 8 11 10 12 11 13 12 13 13 16 20 18 16 11 12 8 9 10 14 20 26 26 27 27 28 29
11 11 11 9 9 8 9 7 6 7 7 8 8 7 9 8 7 7 9 11 11 12 14 13 12 14 19 19 15 17 13 13 10 9 13 10 16 20 25 25 28 28 29
10 11 11 11 11 9 8 10 7 7 8 9 9 7 10 8 7 11 8 11 12 14 15 14 14 13 17 18 17 18 15 14 8 19 13 13 13 20 23 25 27 28 29
13 12 12 12 12 7 11 7 10 10 9 9 9 7 7 7 6 8 11 12 14 15 14 15 14 13 15 18 19 19 15 14 4 18 10 15 15 14 20 23 24 25 26
16 16 16 16 11 10 11 11 13 12 10 8 8 6 5 6 4 7 7 9 10 13 12 11 12 12 12 19 19 20 18 17 6 19 7 12 16 12 16 24 21 24 24
15 14 12 11 9 10 9 10 9 10 11 9 7 7 4 7 9 8 8 9 9 12 15 13 13 12 13 17 17 15 16 5 12 21 12 9 20 16 14 24 22 22 23
17 15 14 12 9 8 9 12 12 9 9 7 5 6 4 9 9 7 8 9 8 9 7 9 9 8 11 16 19 15 24 18 8 13 21 10 18 15 16 22 25 21 24
18 16 15 12 10 7 10 11 10 9 9 7 4 6 8 9 10 9 8 8 8 11 11 9 8 10 11 14 18 23 21 17 13 10 19 12 19 17 5 16 26 24 26

GFSMA_925_spd_165.txt.gz
Wind_Speed
11 9 8 5 3 3 4 5 6 7 8 7 6 6 8 11 11 11 10 12 13 12 10 9 8 7 8 10 12 15 16 17 17 18 20 22 27 27 26 25 24 22 25
12 11 9 6 6 7 6 7 8 9 9 9 8 8 8 7 7 7 10 9 9 9 7 8 6 4 4 7 8 10 15 19 19 20 20 20 21 27 28 29 29 28 27
11 10 8 9 9 5 5 5 7 7 9 10 10 11 11 11 8 5 8 5 7 7 6 5 8 10 8 9 7 8 8 6 11 15 16 18 21 22 26 30 34 33 33
12 10 10 11 8 4 5 7 9 10 11 12 15 13 9 8 7 10 12 11 10 10 11 11 8 7 10 16 13 12 17 10 13 5 6 10 17 19 23 23 33 33 34
12 10 13 11 7 5 8 9 10 10 10 14 14 11 7 5 8 10 12 12 14 14 13 14 14 11 7 11 17 20 21 21 20 17 13 12 14 15 20 22 28 36 39
13 13 15 11 6 6 10 10 11 12 15 16 12 12 9 9 18 14 15 16 18 17 17 15 15 15 13 13 13 18 21 23 22 21 19 18 15 17 22 23 28 31 35
15 13 15 11 8 9 11 11 10 11 18 17 10 20 21 18 18 14 17 19 15 13 13 12 14 13 9 12 17 20 21 22 22 21 20 20 19 18 17 17 18 28 30
16 14 14 13 9 10 10 11 12 11 14 18 8 4 3 6 19 23 20 15 13 12 13 17 14 16 14 12 15 20 24 24 23 22 22 21 21 19 18 15 14 10 21
15 14 14 13 10 9 11 10 10 11 10 13 16 6 3 1 3 3 18 21 16 12 10 10 12 12 13 14 17 21 24 22 23 23 22 23 21 18 17 18 17 14 11
15 14 14 11 11 9 9 10 9 10 9 12 5 10 9 2 1 3 5 12 13 15 9 6 4 8 12 15 17 21 23 23 24 23 23 21 21 17 16 16 15 15 14
13 13 12 11 10 10 10 9 9 10 11 13 12 8 5 7 12 4 2 10 11 12 9 9 10 10 11 15 19 22 20 23 25 23 21 21 20 19 18 16 16 14 14
13 12 12 11 11 10 9 9 9 9 11 11 11 13 11 6 7 6 2 4 10 9 11 15 14 14 14 15 17 17 19 24 24 22 20 20 19 19 20 19 17 17 15
14 12 10 10 10 10 9 9 11 10 10 10 8 11 10 9 8 7 6 2 1 3 9 18 15 15 12 15 17 18 18 22 23 20 19 20 19 19 20 22 22 21 19
15 13 11 10 11 10 10 9 11 10 9 9 8 9 11 9 8 8 5 3 2 2 4 13 14 16 11 15 17 16 19 21 18 17 19 23 23 23 22 23 24 24 22
14 13 12 11 11 12 9 8 10 11 8 10 8 7 8 6 8 6 4 6 3 0 2 6 11 16 8 11 14 13 14 17 14 16 18 19 21 21 22 23 25 24 24
14 13 12 12 12 12 10 10 11 10 11 11 9 6 8 8 7 6 5 6 4 2 2 8 13 12 9 10 12 11 10 13 12 16 18 19 19 21 22 23 23 24 23
14 13 12 12 12 13 11 9 11 11 12 12 8 5 7 6 5 6 4 9 7 8 4 7 10 7 10 8 10 9 9 8 8 10 13 17 18 22 23 24 25 25 25
12 13 14 14 13 13 13 14 14 12 14 11 7 4 4 2 4 6 7 9 7 7 9 10 7 10 11 9 6 9 7 5 7 7 10 14 18 20 23 24 25 26 25
12 13 14 14 12 12 12 12 12 10 10 8 5 6 7 6 6 5 6 7 7 5 9 6 5 9 9 13 7 11 11 5 5 4 6 11 15 20 21 23 24 26 27
14 14 14 14 14 14 13 12 12 12 11 8 7 9 12 11 10 4 6 7 7 7 8 10 10 10 12 14 6 11 14 11 12 4 12 10 15 17 20 22 23 26 27
17 14 13 14 14 15 14 15 15 17 16 14 11 11 14 11 11 10 9 11 8 7 8 9 11 7 11 11 11 11 11 11 1 11 11 14 13 19 22 23 23 25 27
14 17 19 18 14 11 11 13 17 16 14 17 15 10 7 6 6 8 9 11 12 9 9 9 10 9 10 13 11 11 12 9 2 9 10 13 10 19 20 21 22 22 26
22 22 16 16 12 9 12 16 15 11 10 10 11 8 5 5 7 6 8 7 9 8 10 11 15 12 10 15 12 9 10 7 6 12 6 11 14 18 19 19 22 21 22
21 19 21 16 12 14 13 12 10 10 10 8 7 6 5 8 9 6 7 6 8 12 13 13 12 12 13 14 11 4 10 14 13 17 7 7 14 17 23 22 22 21 20
22 17 17 15 14 15 14 13 12 10 11 10 7 5 7 11 8 7 8 7 9 9 8 8 8 7 9 14 22 9 12 7 5 14 15 7 15 9 26 27 21 23 22
20 17 14 11 10 14 14 15 15 12 13 12 10 11 10 11 8 9 10 11 12 10 10 9 8 9 10 14 18 25 25 17 7 6 18 7 17 9 3 21 22 25 22

GFSMA_925_spd_168.txt.gz
Wind_Speed
17 15 12 9 5 4 4 3 2 2 1 1 1 2 3 3 5 8 7 5 5 6 8 12 12 10 9 7 7 9 11 11 10 12 13 16 18 22 24 25 27 27 28
19 17 13 10 8 6 5 4 3 2 1 2 2 3 4 3 3 3 2 4 3 5 7 8 8 8 10 12 10 11 14 10 7 9 12 14 16 20 22 25 27 30 30
19 17 14 12 10 7 5 5 4 2 2 3 4 4 3 4 1 3 6 8 8 7 6 5 3 6 11 18 21 17 6 16 13 12 9 7 13 18 19 19 25 29 33
16 16 15 12 10 7 5 5 5 5 5 8 7 5 6 7 8 11 11 11 11 11 11 11 8 7 9 14 17 19 19 9 14 19 19 12 11 13 18 22 19 22 34
16 16 15 13 9 7 7 7 7 7 11 11 10 6 6 12 15 15 15 14 14 14 15 14 13 11 15 15 16 17 18 18 18 18 19 20 19 17 14 18 21 22 23
14 16 15 12 9 8 9 9 9 9 12 11 15 20 20 21 16 17 17 16 15 15 16 14 12 14 14 15 18 19 19 18 18 17 18 18 19 18 17 17 18 20 25
14 15 15 12 10 10 11 10 8 10 14 12 18 27 26 20 20 17 14 13 13 12 10 9 10 7 8 10 13 17 19 19 20 20 19 18 19 18 17 18 17 18 21
13 13 14 13 11 10 11 10 9 8 11 11 5 5 3 10 22 20 19 16 13 11 9 9 10 9 9 11 14 16 18 21 21 20 20 19 19 18 16 17 18 18 16
13 13 12 11 10 9 10 10 9 8 7 11 11 3 2 3 3 7 17 17 12 14 14 12 10 10 11 13 15 17 19 20 21 20 19 19 18 18 16 15 16 16 16
12 11 10 9 9 9 10 10 9 9 8 7 7 11 9 4 2 2 2 11 15 9 10 11 10 11 13 14 15 17 18 20 19 20 20 19 17 17 18 17 15 16 16
13 12 12 11 10 10 10 10 10 10 9 10 8 6 8 10 8 4 0 5 7 9 10 11 11 11 12 13 17 18 18 20 19 18 17 18 18 17 18 18 17 18 16
15 13 12 11 11 10 10 10 10 10 10 11 11 10 6 3 3 4 2 0 3 14 12 12 11 11 11 13 14 17 19 21 17 16 18 19 18 18 18 19 20 19 18
19 17 15 14 12 11 11 10 10 10 10 10 9 12 12 11 9 8 5 2 1 3 6 13 10 8 9 12 12 15 17 19 14 15 16 18 19 19 20 20 21 21 21
18 14 13 12 12 11 12 11 10 10 10 10 9 11 12 9 8 7 5 3 1 1 4 4 9 8 11 11 9 14 15 14 13 15 17 18 19 19 20 21 22 22 21
16 13 11 11 11 11 10 10 11 11 10 10 9 8 7 7 7 7 7 5 3 2 2 3 5 7 8 7 8 10 12 12 13 15 15 17 18 19 20 21 23 23 22
16 14 12 11 11 10 11 10 12 11 11 10 9 7 8 8 9 7 5 5 4 5 2 3 7 5 4 7 7 7 10 10 12 13 17 18 19 21 22 24 25 24 23
17 15 12 11 9 9 12 11 13 13 12 10 8 6 7 5 5 4 3 5 6 4 3 1 3 2 5 6 4 6 7 9 10 8 14 17 19 21 23 24 26 25 23
17 16 14 10 9 11 12 13 14 14 13 10 7 4 4 2 2 2 3 4 4 3 3 3 3 4 6 7 6 3 6 5 6 9 10 14 18 20 22 24 26 25 25
22 17 14 12 13 12 12 14 13 14 10 7 5 3 3 2 3 3 3 3 3 4 4 4 4 2 4 10 5 5 8 8 7 5 5 10 14 18 21 22 25 24 26
17 16 16 16 14 13 12 14 14 12 10 7 5 5 5 4 5 5 3 1 3 6 8 8 5 4 6 7 3 6 6 7 11 10 8 11 13 16 20 21 22 24 22
16 17 17 17 15 13 16 16 15 13 12 10 8 7 8 8 8 6 7 7 4 7 7 6 6 4 6 7 7 7 5 6 0 7 11 9 13 16 21 20 19 22 21
17 18 18 15 15 13 13 17 17 15 12 9 10 9 9 7 8 9 11 11 10 7 8 10 10 8 9 10 7 5 5 5 0 4 9 11 12 15 18 18 16 18 20
22 19 19 20 15 10 13 17 17 14 11 10 9 8 5 6 7 9 9 10 11 12 16 17 17 13 10 14 7 2 3 2 4 3 6 14 11 14 16 19 16 16 19
22 23 24 20 14 10 12 16 15 11 10 10 8 6 3 8 7 7 7 11 14 15 15 16 14 10 13 15 5 1 2 9 8 8 5 5 13 16 14 16 17 18 19
25 26 23 19 16 15 12 15 14 12 11 10 7 4 6 11 9 8 7 13 11 10 10 8 7 7 8 13 12 6 9 4 2 7 7 4 5 13 19 17 18 16 18
28 24 22 19 16 16 15 13 15 13 13 11 9 10 8 10 8 10 10 14 13 11 11 11 7 7 9 12 18 20 10 8 6 3 7 4 4 2 2 14 18 20 19

GFSMA_925_spd_174.txt.gz
Wind_Speed
18 16 14 11 9 7 6 6 5 4 4 4 5 4 4 5 5 7 9 10 11 14 13 13 17 18 14 8 14 8 9 14 6 7 3 3 4 6 9 10 12 14 18
17 15 13 11 8 6 5 5 4 4 4 4 3 3 3 4 5 8 11 14 15 16 14 13 16 18 17 10 7 10 9 12 15 11 10 9 9 9 11 13 15 15 14
18 16 13 10 7 5 5 4 4 4 3 3 4 5 5 7 9 11 12 13 15 16 15 16 14 14 15 16 15 16 15 14 15 16 15 16 14 13 11 11 13 14 15
20 18 15 13 11 9 7 7 6 5 4 6 9 10 11 13 15 15 15 15 15 15 14 12 15 16 16 16 15 15 15 15 15 14 13 12 14 15 14 13 13 14 15
20 18 16 14 13 12 10 9 8 6 8 12 16 18 19 18 16 16 17 16 15 14 14 13 12 16 18 18 17 16 16 15 15 15 16 15 14 16 15 14 13 14 14
20 19 16 16 14 13 11 10 9 10 14 19 23 21 19 18 18 16 15 14 14 13 12 11 11 13 13 13 17 18 18 18 16 16 15 16 17 17 16 13 12 12 13
18 17 16 16 15 14 14 13 14 19 24 28 21 24 20 15 15 13 12 11 11 11 10 11 11 12 12 13 17 18 19 18 17 17 16 15 15 16 16 15 13 12 11
16 14 13 13 12 13 14 14 14 19 17 11 6 7 3 6 13 11 11 11 11 11 11 11 10 11 13 15 16 19 21 18 18 17 16 16 16 15 16 16 15 14 15
14 14 13 12 11 10 11 12 11 12 10 7 15 5 3 3 5 8 12 12 12 12 12 10 10 10 13 14 15 18 21 19 18 18 17 17 16 17 16 16 17 16 15
13 14 14 12 11 11 10 10 10 10 9 9 8 3 4 9 3 2 6 9 10 10 9 8 8 9 10 12 15 17 18 17 16 16 16 16 16 16 16 17 17 17 16
13 13 13 13 12 11 10 10 11 10 10 12 8 6 6 6 8 4 3 6 10 9 9 8 8 7 8 11 15 15 17 17 17 16 16 18 18 16 17 17 17 17 17
14 13 13 13 11 10 8 8 7 7 7 7 8 10 8 3 4 4 3 3 7 6 9 7 8 7 7 9 10 13 14 14 15 16 17 18 17 17 18 18 17 18 18
15 13 12 11 11 11 10 9 9 7 7 7 8 9 8 6 5 5 6 5 4 7 5 7 6 5 5 7 9 9 11 12 14 16 17 17 18 19 19 19 19 19 19
16 14 12 11 11 11 10 10 9 9 8 9 9 9 9 8 6 5 5 8 2 3 4 5 5 4 3 3 5 6 10 12 14 15 16 17 17 18 19 20 20 20 20
18 16 15 13 12 11 9 9 10 11 11 10 10 9 7 7 6 6 5 6 5 3 2 6 5 5 4 4 3 5 9 7 11 13 15 16 17 18 19 19 19 19 20
18 17 16 14 13 12 11 10 10 10 10 10 9 8 7 6 4 4 3 3 3 5 3 5 3 7 6 4 2 3 6 6 8 11 13 15 15 16 18 17 19 18 19
16 17 14 13 11 11 10 10 11 10 8 8 8 6 7 5 5 4 4 4 3 3 4 4 6 6 4 3 3 4 2 3 6 8 8 11 13 15 17 17 18 17 18
17 15 14 14 12 13 12 11 11 10 7 8 7 6 5 3 3 3 3 4 3 3 4 6 6 4 4 2 2 3 1 2 2 3 6 7 12 13 15 17 16 18 17
20 17 15 15 17 16 14 13 8 8 8 6 5 4 3 4 5 4 4 4 4 3 3 5 5 3 2 0 1 2 3 5 6 5 4 5 9 13 14 14 18 16 17
19 19 16 16 15 15 16 13 12 10 8 7 5 4 3 4 4 4 4 4 4 5 5 6 6 3 1 3 2 2 3 5 6 9 5 4 7 11 14 13 16 14 16
19 19 18 17 15 13 12 13 13 11 10 8 6 5 5 6 5 3 4 6 6 6 6 6 4 2 3 2 1 1 3 4 8 8 7 7 8 11 16 17 17 15 17
22 20 18 17 15 13 12 13 13 11 9 8 9 10 10 9 9 9 7 6 6 6 7 6 4 4 3 4 1 3 3 6 4 7 7 9 7 11 14 16 19 16 17
21 18 16 14 14 13 14 14 13 11 8 5 6 7 5 7 6 8 10 14 13 10 9 8 12 9 6 6 1 4 4 6 4 10 11 9 9 11 12 13 18 17 18
19 18 17 16 16 14 15 16 15 13 9 7 7 7 5 6 7 5 7 11 15 16 15 13 11 10 11 10 6 6 8 11 9 6 7 4 9 14 11 9 13 17 18
20 19 18 19 18 16 16 17 17 15 12 10 9 7 6 8 9 7 8 12 13 12 11 9 8 8 8 11 5 5 8 5 3 2 4 6 8 12 14 13 9 8 15
21 21 21 20 18 19 19 16 16 18 15 12 10 8 8 9 10 8 8 10 11 10 10 10 8 8 11 13 12 3 10 6 5 3 3 3 10 3 2 12 13 11 11

GFSMA_925_spd_177.txt.gz
Wind_Speed
20 18 16 15 13 11 9 8 8 8 8 8 8 7 7 7 8 9 11 14 16 17 20 21 21 18 12 11 12 14 12 11 14 9 7 7 5 5 4 5 5 5 9
20 19 17 16 14 12 9 9 9 9 9 8 8 8 9 9 10 11 13 16 16 18 19 20 18 17 18 18 15 16 16 14 14 11 6 5 6 7 7 5 5 5 7
21 20 18 16 13 12 10 11 11 9 9 8 9 9 10 11 13 15 18 18 16 15 13 11 14 15 16 17 16 15 15 14 12 13 13 13 12 10 9 7 7 7 7
23 21 18 15 13 12 12 12 11 10 11 11 10 10 12 13 14 15 15 13 14 15 16 16 19 18 17 16 15 15 14 13 13 13 13 13 13 11 10 10 9 9 10
22 21 19 15 13 11 11 11 11 9 11 12 14 15 14 13 14 15 16 15 14 14 15 16 16 17 19 18 17 16 15 14 14 15 14 13 14 15 13 12 11 12 12
23 21 18 15 14 14 14 12 11 12 13 17 19 17 13 12 13 13 14 13 13 14 14 13 13 16 16 18 18 17 16 16 15 15 15 15 15 17 17 16 13 12 10
22 20 18 16 16 15 15 16 17 18 17 20 19 17 13 12 12 11 10 10 12 13 12 12 12 11 12 12 15 17 17 16 16 15 15 15 15 15 17 17 15 13 14
19 18 18 18 17 17 18 18 19 16 13 15 8 12 6 6 8 8 8 9 10 11 11 12 12 12 11 12 15 17 17 16 15 15 15 15 15 16 16 16 16 16 15
15 16 17 17 17 17 18 18 18 14 15 11 13 4 4 3 11 5 6 7 9 10 11 11 11 11 11 10 11 13 16 16 16 15 14 15 14 15 15 15 17 16 16
16 16 15 16 15 15 16 17 16 15 13 12 12 5 3 11 4 5 6 7 8 8 7 8 10 10 10 10 12 13 14 15 16 15 15 14 15 15 15 16 16 16 15
20 16 14 14 13 12 12 11 12 12 11 7 6 5 4 4 7 5 5 9 7 7 6 6 8 8 8 8 8 10 12 14 15 14 15 15 16 16 17 17 16 16 17
6 15 15 12 9 8 7 7 7 8 8 8 8 7 6 5 8 5 4 11 10 7 6 5 5 6 6 8 8 10 11 13 14 14 14 15 16 17 18 18 17 16 17
7 7 11 10 7 7 6 5 5 6 4 6 10 8 5 3 4 6 9 10 7 9 6 6 5 6 5 6 6 9 11 12 13 13 14 16 16 16 17 17 16 17 19
12 12 6 6 6 6 7 7 8 5 8 9 10 10 9 5 7 7 9 13 6 6 8 7 6 5 5 5 5 8 7 10 12 12 14 14 15 16 16 16 16 18 20
21 12 11 12 11 9 7 8 7 9 9 7 7 8 9 9 7 7 8 11 9 6 7 10 6 7 7 5 4 5 4 4 7 9 12 13 14 16 16 17 17 17 19
17 17 13 10 10 9 9 8 8 8 7 8 6 6 7 7 7 8 6 6 5 5 5 7 7 9 7 6 5 6 4 2 4 5 7 12 13 14 16 15 16 15 18
14 15 14 14 12 10 8 6 6 7 7 5 6 6 5 5 4 5 7 7 6 5 7 6 7 8 7 6 6 6 4 3 3 4 7 9 10 12 14 15 16 15 19
15 17 17 15 13 12 12 12 12 11 8 7 5 4 4 5 4 4 4 6 6 5 8 13 12 8 7 6 6 6 4 3 3 5 4 7 10 12 13 14 15 15 15
19 19 18 18 16 13 14 13 11 11 9 8 6 4 5 4 4 3 3 4 5 4 6 9 10 9 8 6 6 5 4 5 7 5 4 4 10 12 12 13 14 12 15
23 21 20 18 17 18 16 16 14 10 9 6 4 4 3 3 5 3 2 4 6 7 7 8 8 8 7 5 5 7 6 6 6 5 4 5 7 11 13 15 13 15 15
21 20 18 16 16 18 18 15 12 11 12 9 6 3 2 2 3 5 4 5 7 7 8 8 8 8 6 6 6 6 7 7 6 5 4 4 5 7 12 15 12 14 15
22 22 20 18 18 16 14 13 12 11 11 11 9 8 8 7 7 6 4 8 8 7 7 7 6 7 6 5 6 7 8 10 7 5 5 4 5 8 10 16 13 14 15
23 21 19 18 16 14 14 14 15 14 12 11 11 9 6 4 4 7 11 10 8 8 8 7 10 8 6 3 6 7 7 8 5 8 8 5 5 8 7 11 16 13 15
25 23 21 17 16 14 15 16 17 15 13 12 10 7 5 6 7 5 7 11 14 15 14 13 12 9 6 5 9 7 7 9 8 7 6 4 5 7 6 4 11 14 14
24 23 20 20 19 18 19 19 19 17 15 13 10 9 8 9 10 8 11 14 12 14 13 13 12 11 8 7 9 9 10 10 7 5 6 5 6 7 6 6 4 7 10
26 22 21 20 20 21 21 22 20 18 16 14 12 9 9 11 12 12 12 13 12 11 12 13 11 10 11 11 6 10 9 7 6 5 5 6 9 5 4 5 6 6 6

GFSMA_925_spd_183.txt.gz
Wind_Speed
19 18 18 19 15 14 14 13 11 11 11 9 8 8 8 6 7 10 7 10 14 18 19 18 16 14 14 12 11 11 12 12 11 8 3 1 1 1 0 2 2 3 2
19 19 16 16 15 14 13 12 10 9 8 8 8 7 8 9 9 11 11 17 21 21 20 18 15 16 15 14 12 10 9 10 11 11 11 10 5 3 3 3 4 3 1
20 19 18 18 16 14 13 12 11 10 9 8 7 9 9 9 10 13 14 18 18 17 17 18 17 16 14 14 14 14 14 13 13 12 12 12 11 10 10 10 10 11 9
20 21 19 17 16 15 14 12 12 11 12 12 11 11 10 10 12 12 14 11 9 12 15 17 17 17 16 15 13 14 14 14 13 14 13 13 13 12 10 8 8 8 11
21 21 18 18 18 15 15 13 13 13 13 13 12 11 11 11 12 12 11 10 9 10 12 16 18 18 17 15 13 13 13 13 13 13 12 12 13 13 12 13 12 7 7
21 21 19 18 18 17 14 13 13 13 13 13 11 12 11 10 10 11 12 11 11 10 10 11 11 14 17 16 14 14 13 14 14 14 13 13 13 12 12 11 12 11 9
18 17 18 19 17 17 15 15 14 13 14 13 15 12 9 10 11 11 12 11 10 9 9 8 9 10 12 13 15 13 12 12 11 10 11 11 12 13 13 13 12 12 11
23 23 14 17 19 15 16 15 14 14 14 16 14 14 6 6 3 7 10 11 10 9 9 6 6 7 9 10 12 14 13 13 12 11 11 11 12 12 13 13 13 13 13
22 19 14 13 11 7 12 14 15 14 13 19 10 3 4 4 17 7 5 9 9 8 7 7 6 7 8 8 8 8 11 14 13 11 12 12 12 13 13 13 14 15 15
18 19 19 15 13 16 13 9 4 6 6 10 10 2 3 6 2 5 10 7 8 7 7 6 5 6 8 8 6 9 12 14 14 12 12 12 11 13 13 12 12 14 15
15 15 13 14 13 10 17 12 6 5 7 4 8 3 0 3 7 4 7 10 7 8 8 7 7 5 6 8 8 10 11 12 14 13 12 12 13 13 11 12 13 14 14
16 12 9 9 8 8 9 13 11 9 7 7 5 3 3 4 4 5 5 10 12 11 10 10 9 9 7 8 10 10 11 13 13 13 12 13 13 13 12 12 14 15 15
19 19 17 19 17 13 15 15 19 14 8 6 4 3 4 2 3 2 1 2 10 16 11 11 12 11 9 10 10 9 11 12 12 12 13 13 12 11 12 11 13 15 15
25 18 19 14 21 15 9 12 12 10 11 10 7 9 9 6 3 6 3 10 5 8 12 11 15 12 11 10 12 9 10 10 12 11 12 13 12 11 12 11 11 14 16
29 22 19 17 15 18 14 13 13 14 14 15 13 11 10 8 7 5 12 16 13 6 7 16 11 15 13 10 10 9 12 7 10 9 10 11 11 12 12 11 12 15 17
22 18 18 16 18 14 14 14 14 15 14 12 11 10 9 8 6 6 6 10 8 11 8 16 17 14 12 11 12 8 8 7 8 7 8 9 11 11 12 10 12 16 18
20 20 18 15 14 15 13 13 13 13 13 12 11 11 10 9 7 6 4 6 9 7 7 6 12 14 13 10 13 11 7 8 8 8 8 9 9 10 11 11 13 14 15
18 18 19 20 17 17 16 15 13 11 11 10 9 8 6 6 7 7 5 5 4 4 4 6 8 11 12 12 12 10 9 11 10 8 5 7 8 11 11 11 12 13 14
21 21 19 16 15 16 16 12 10 11 10 9 9 9 6 5 4 5 7 8 8 7 6 10 11 13 15 13 11 10 10 12 8 3 4 6 7 10 8 10 11 14 13
20 18 17 17 15 13 12 12 12 11 10 8 7 5 5 4 5 5 6 6 7 9 14 15 12 14 12 11 12 12 10 9 8 6 4 5 4 8 7 9 12 13 12
19 19 19 17 16 15 14 15 14 13 11 9 7 6 5 7 10 9 6 6 6 8 9 11 14 12 13 13 12 12 11 13 10 6 5 3 4 4 6 8 10 13 14
21 20 20 20 19 16 17 19 16 14 12 11 11 11 8 5 4 8 11 11 9 6 7 7 6 9 9 11 12 12 13 13 6 8 7 5 3 7 8 7 10 10 13
22 23 22 20 21 17 22 21 16 11 12 11 11 13 11 10 9 8 8 7 9 9 6 3 2 3 6 6 7 7 12 9 6 15 11 7 5 8 8 9 9 9 11
26 25 26 26 19 21 21 20 17 14 14 14 15 15 12 12 11 10 10 11 10 8 8 9 7 9 9 11 8 7 6 12 14 12 7 7 6 7 6 5 5 6 7
32 29 25 24 22 21 20 19 19 17 15 15 15 13 13 11 11 11 11 12 12 7 8 7 7 8 11 13 9 7 10 9 6 6 10 4 9 7 6 3 1 4 4
33 28 27 26 24 21 22 21 21 18 17 16 14 12 12 11 12 11 10 11 12 10 8 9 8 7 6 14 11 6 7 9 14 6 11 6 11 8 6 5 3 1 2

GFSMA_925_spd_186.txt.gz
Wind_Speed
23 24 23 20 18 15 18 15 16 15 9 7 7 6 7 5 12 12 12 11 13 15 15 15 16 17 14 14 15 13 12 12 12 10 5 3 3 1 2 2 3 2 3
23 22 20 22 21 20 17 17 14 11 11 12 12 9 10 8 10 13 17 16 19 19 17 15 13 14 15 15 14 15 14 14 14 14 14 14 13 9 6 6 8 10 10
21 26 23 23 22 20 17 16 14 13 13 13 12 12 12 11 12 15 19 22 22 20 18 16 14 14 14 15 14 14 15 14 15 14 12 13 14 12 12 11 9 9 11
21 27 24 22 19 20 18 16 16 16 14 13 13 12 12 13 13 18 19 18 17 17 18 17 16 16 16 14 14 14 14 14 16 16 14 14 14 14 13 11 11 11 12
24 23 23 23 22 22 19 17 19 19 17 15 16 13 13 13 14 16 15 12 11 12 14 17 18 17 15 14 13 12 12 13 14 13 12 12 12 12 12 12 11 10 8
26 21 19 24 24 21 18 21 21 21 21 19 17 15 13 13 14 16 17 12 18 10 8 13 13 18 17 14 12 13 12 12 10 10 10 11 11 12 13 12 11 11 11
27 22 22 24 25 20 21 20 21 20 17 19 21 16 12 10 9 12 15 18 13 7 14 6 9 11 15 16 13 11 10 9 10 10 10 10 10 12 12 11 11 12 12
23 23 20 23 24 23 16 21 21 17 12 21 13 13 3 5 6 13 18 16 13 12 11 6 10 15 7 7 10 12 11 10 9 9 10 10 11 11 11 11 11 11 12
21 21 22 22 23 20 15 22 19 19 18 23 21 6 4 4 10 11 13 13 14 11 13 9 8 7 8 9 6 8 11 12 11 9 10 10 11 11 11 11 12 11 12
20 20 20 20 16 14 17 17 16 8 14 25 18 11 10 7 3 4 12 12 12 13 11 12 11 11 11 8 4 6 10 11 12 10 9 9 10 10 11 12 13 13 14
16 17 18 19 19 16 15 10 15 10 13 6 10 11 11 8 7 7 4 9 11 7 11 11 12 7 6 9 7 6 8 10 11 10 9 9 9 10 11 12 12 12 13
18 15 13 10 7 10 10 6 4 9 15 14 13 11 11 7 4 6 4 9 14 15 16 16 14 11 13 14 10 6 6 9 11 10 9 9 10 11 11 12 13 14 15
23 20 17 17 16 12 18 18 17 14 14 13 13 11 9 8 5 8 9 6 4 9 12 17 17 14 13 14 9 3 6 8 10 9 9 9 10 10 11 11 13 14 15
26 25 26 18 20 21 17 17 17 18 18 15 11 8 7 5 3 3 2 2 1 6 9 9 17 15 14 15 10 6 6 8 9 8 9 9 10 10 10 11 12 14 16
28 26 23 24 18 15 15 15 18 18 19 19 16 12 9 9 11 12 11 13 7 3 5 12 9 19 15 18 13 10 9 7 7 6 7 9 10 10 9 10 12 14 14
23 22 19 20 19 20 17 18 18 17 18 17 15 14 13 13 12 10 8 11 13 2 0 9 15 20 19 15 16 15 12 7 5 5 4 7 7 8 10 10 11 12 13
21 22 21 21 21 20 17 16 15 15 13 12 10 10 11 12 10 10 12 9 16 10 2 3 13 21 20 19 17 14 11 8 7 6 4 5 6 9 9 10 10 11 12
20 20 19 18 19 18 19 17 16 15 16 17 16 16 15 14 13 11 10 10 10 9 10 9 14 19 17 16 18 12 12 13 12 8 5 4 7 8 10 9 10 11 12
21 20 22 22 20 21 21 19 18 18 16 16 15 14 13 12 11 11 11 10 12 12 14 10 11 18 18 15 14 10 18 17 12 8 5 6 8 9 9 10 12 13 15
27 25 23 20 20 19 20 16 13 14 13 12 12 10 10 10 10 11 10 11 15 18 14 11 12 16 17 16 15 16 20 17 12 10 8 3 6 10 10 12 13 14 14
26 24 22 21 19 19 18 17 17 18 17 16 13 11 11 11 12 12 11 10 10 12 14 16 12 14 17 18 18 14 16 15 16 10 8 6 6 11 12 11 11 14 14
26 26 24 23 21 19 18 21 21 19 16 15 13 12 7 8 10 11 11 12 13 13 12 13 13 19 17 15 17 14 13 17 6 13 12 7 9 12 9 9 9 13 13
27 27 26 26 24 20 21 22 19 17 14 12 14 9 7 5 6 10 12 11 10 9 9 9 15 14 14 15 5 17 11 22 12 18 16 10 10 11 8 10 7 9 9
31 30 30 28 28 23 22 22 20 17 14 14 14 14 13 12 7 10 12 11 10 9 9 9 13 14 12 11 11 8 6 12 17 20 16 6 10 11 8 7 5 3 5
33 33 34 32 29 25 24 26 23 19 18 17 16 20 15 15 14 11 12 12 11 10 8 11 9 8 13 15 13 10 15 18 10 9 11 8 12 11 7 6 4 3 4
39 36 32 31 27 27 28 28 25 23 22 20 18 16 14 12 15 14 13 13 13 11 9 11 9 7 13 15 14 11 11 14 12 6 13 8 16 10 5 8 5 2 1